STARLINK-3934, 52675

Orbit data source: Space-Track

STARLINK-3934, 52675 is a payload satellite owned by SpaceX/Seattle (US) in LEO that was launched on Wed, 18 May 2022 UTC via an FALCON 9 launch vehicle from the Air Force Eastern Test Range (AFETR). Payload-class satellites include a variety of spacecraft equipped with specific instruments for various scientific and technological missions. These include communications satellites like Starlink; space stations such as the ISS; scientific satellites like the Hubble; Earth observation satellites from companies like Planet Labs, Umbra, and HawkEye 360; GPS; miniature CubeSats for education and research; and military/defense satellites.

Loading next visibility...
Identifier
52675, 2022-053V
Orbit
LEO
Country
Flag of USUS
Related business
Manufacturer
SpaceX/Seattle
Mission
Operational Commercial Communications
Bus & Motor
STARLINK, Unknown motor
Mass
297 kg wet, ~275 kg dry
Launch date (UTC)
2022-05-18 (4 years ago)
Launch vehicle
FALCON 9
Launch site
Air Force Eastern Test Range (AFETR)
Object type
Payload
Rocket body
Debris
Shape & HBR
Box + 1 Pan, 10.1 m
Radar Cross Section
13.562 m², Large (>1 m²)

Expand to show TLE details & history
Last TLE update: 2 days ago

TLE from 2 days ago
0 STARLINK-3934
1 52675U 22053V   26171.37161451  .00000618  00000-0  56909-4 0  9990
2 52675  53.1601  43.0500 0001343  89.2839 270.8306 15.08838772226673
Epoch: 2026-06-20T08:55Z
TLE epoch observation values (Epoch: 2026-06-20T08:55:07.493Z)
Latitude
-0.00006°
Longitude
0.68154°
Altitude
540.625 km
Speed
7.593 km/s
True Right ascension
02h 52m 11s
True Declination
0° 00' 00"
Sunlit
Object was in daylight at epoch
Visualization orbit readout
Latitude
Unknown
Longitude
Unknown
Altitude
Unknown
Speed
Unknown
Apparent Right ascension
Unknown
Apparent Declination
Unknown
Sunlit
N/A
Visualization observer readout
Local Sidereal Time
21:27:48
Azimuth
Unknown
Elevation
Unknown
Doppler factor
Unknown
Orbital elements
Apogee altitude
540.93 km
Perigee altitude
539.072 km
Semi-major axis
6,918.138 km
Eccentricity
0.00013
Inclination
53.1601°
RAAN
43.05°
Arg. of periapsis
89.2839°
True anomaly
270.81521°
Mean anomaly
270.8306°
Eccentric anomaly
270.82291°
Mean motion
3.77189 °/min
Orbital period
95.44 mins
BSTAR
0.000056909
Loading maneuver chart data...
Computing Atmospheric mass density...
Loading historical data...
Loading historical data...
Loading historical data...
Loading historical data...
Loading historical data...
Loading historical data...
Loading historical data...

Documentation

Showing up to 5 results
|